Bridgeport, West Virginia, United States (26330)
Lat: 39.29N, Lon: 80.26W
Wx Zone: WVZ031
Local Info
Past Weather Observations for Today

NOTE: This archive is for the closest National Weather Service station to Bridgeport. Information may differ from the station used for current weather conditions.

Click here for Long-term Archive

Time Weather Temperature Dewpoint Humidity Pressure Winds Precip Visibility
21:53
Partly Cloudy
68°F / 20°C 63°F / 17°C 83% 30.12 in
(1020 mb)
Calm - 10SM
20:53
Partly Cloudy
72°F / 22°C 63°F / 17°C 73% 30.12 in
(1020 mb)
Calm 0.00 in
(0.00 mm)
10SM
20:51
Partly Cloudy
72°F / 22°C 63°F / 17°C 73% 30.12 in
(1020 mb)
S 3.5 mph
(S 6 kph)
0.00 in
(0.00 mm)
10SM
19:53
Mostly Cloudy
Thunder Storms
73°F / 23°C 61°F / 16°C 65% 30.15 in
(1021 mb)
NNW 10.4 mph
(NNW 17 kph)
- 10SM
18:53
Mostly Cloudy
Thunder Storms
77°F / 25°C 59°F / 15°C 54% 30.09 in
(1019 mb)
E 6.9 mph
(E 11 kph)
- 8SM
18:40
Mostly Cloudy
Thunder Storms
81°F / 27°C 64°F / 18°C 58% 30.09 in
(1019 mb)
ENE 12.7 mph
(ENE 20 kph)
- 8SM
17:53
Partly Cloudy
82°F / 28°C 66°F / 19°C 58% 30.06 in
(1018 mb)
SSE 5.8 mph
(SSE 9 kph)
- 10SM
16:53
Partly Cloudy
88°F / 31°C 63°F / 17°C 43% 30.06 in
(1018 mb)
Calm - 10SM
15:53
Mostly Cloudy
88°F / 31°C 61°F / 16°C 40% 30.06 in
(1018 mb)
W 4.6 mph
(W 7 kph)
- 10SM
14:53
Mostly Cloudy
88°F / 31°C 61°F / 16°C 40% 30.06 in
(1018 mb)
NW 6.9 mph
(NW 11 kph)
- 10SM
13:53
Clear
88°F / 31°C 64°F / 18°C 46% 30.09 in
(1019 mb)
Calm - 10SM
12:53
Clear
84°F / 29°C 63°F / 17°C 48% 30.09 in
(1019 mb)
Calm - 10SM
11:53
Clear
82°F / 28°C 64°F / 18°C 55% 30.09 in
(1019 mb)
Calm - 10SM
10:53
Clear
81°F / 27°C 66°F / 19°C 62% 30.12 in
(1020 mb)
Variable 4.6 mph
(Variable 7 kph)
- 10SM
09:53
Clear
79°F / 26°C 68°F / 20°C 70% 30.12 in
(1020 mb)
NNW 3.5 mph
(NNW 6 kph)
- 8SM
08:53
Clear
Hazy
73°F / 23°C 66°F / 19°C 78% 30.12 in
(1020 mb)
Calm - 6SM
07:53
Clear
Fog And Mist
68°F / 20°C 64°F / 18°C 88% 30.09 in
(1019 mb)
Calm - 4SM
07:17
Clear
Fog And Mist
64°F / 18°C 64°F / 18°C 100% 30.09 in
(1019 mb)
Calm - 2 1/2SM
06:53
Partly Cloudy
Fog And Mist
64°F / 18°C 63°F / 17°C 94% 30.09 in
(1019 mb)
Calm - 3SM
06:26
Mostly Cloudy
Fog And Mist
63°F / 17°C 63°F / 17°C 100% 30.09 in
(1019 mb)
Calm - 2SM
06:05
Clear
Fog And Mist
63°F / 17°C 61°F / 16°C 94% 30.09 in
(1019 mb)
Calm - 3SM
05:53
Clear
Fog And Mist
63°F / 17°C 63°F / 17°C 100% 30.06 in
(1018 mb)
Calm - 1 1/4SM
05:28
Clear
Fog And Mist
63°F / 17°C 61°F / 16°C 94% 30.06 in
(1018 mb)
Calm - 1 1/4SM
05:01
Clear
Fog And Mist
63°F / 17°C 61°F / 16°C 94% 30.06 in
(1018 mb)
Calm - 2SM
04:53
Clear
Fog And Mist
63°F / 17°C 63°F / 17°C 100% 30.06 in
(1018 mb)
Calm - 3SM
04:39
Partly Cloudy
Fog And Mist
63°F / 17°C 63°F / 17°C 100% 30.06 in
(1018 mb)
SSE 3.5 mph
(SSE 6 kph)
- 3SM
04:28
Partly Cloudy
Fog And Mist
63°F / 17°C 63°F / 17°C 100% 30.04 in
(1017 mb)
Calm - 2 1/2SM
04:15
Partly Cloudy
Fog And Mist
63°F / 17°C 63°F / 17°C 100% 30.04 in
(1017 mb)
Calm - 1 1/2SM
04:08
Obscured
Fog And Mist
63°F / 17°C 63°F / 17°C 100% 30.04 in
(1017 mb)
Calm - 1SM
04:01
Partly Cloudy
Fog And Mist
63°F / 17°C 63°F / 17°C 100% 30.04 in
(1017 mb)
NW 4.6 mph
(NW 7 kph)
- 1 1/4SM
03:53
Clear
Fog And Mist
64°F / 18°C 63°F / 17°C 94% 30.04 in
(1017 mb)
Calm - 2SM
03:39
Clear
Fog And Mist
64°F / 18°C 63°F / 17°C 94% 30.04 in
(1017 mb)
Calm - 2 1/2SM
03:06
Clear
Fog And Mist
63°F / 17°C 63°F / 17°C 100% 30.04 in
(1017 mb)
ENE 3.5 mph
(ENE 6 kph)
- 3SM
02:53
Clear
Fog And Mist
63°F / 17°C 63°F / 17°C 100% 30.04 in
(1017 mb)
Calm - 1 1/2SM
02:40
Clear
Fog And Mist
64°F / 18°C 63°F / 17°C 94% 30.04 in
(1017 mb)
Calm - 2 1/2SM
02:14
Clear
Fog And Mist
63°F / 17°C 63°F / 17°C 100% 30.01 in
(1016 mb)
Calm - 1 1/2SM
02:04
Clear
Fog And Mist
64°F / 18°C 63°F / 17°C 94% 30.01 in
(1016 mb)
Calm - 3SM
01:53
Partly Cloudy
Fog And Mist
63°F / 17°C 63°F / 17°C 100% 30.01 in
(1016 mb)
Calm - 2SM
01:40
Obscured
Fog And Mist
64°F / 18°C 63°F / 17°C 94% 30.01 in
(1016 mb)
Calm - 1SM
01:34
Partly Cloudy
Fog And Mist
64°F / 18°C 63°F / 17°C 94% 30.01 in
(1016 mb)
Calm - 2 1/2SM
00:53
Clear
Fog And Mist
64°F / 18°C 63°F / 17°C 94% 30.01 in
(1016 mb)
Calm - 4SM
Time Weather Temperature Dewpoint Humidity Pressure Winds Precip Visibility


Weather for websites

WeatherForYou.com, LLC is not responsible for any damages or problems caused by this service. Current weather conditions are obtained from the closest station including government and personal stations which may have varying degrees of accuracy. Weather forecasts are derived from the NOAA NDFD. Like all things, this site belongs to Jesus Christ... He just trusts us to maintain it. If you have any questions or comments email webmaster@weatherforyou.com

Copyright © 2015, WeatherForYou.com LLC. All rights reserved.